CG78 TNCC-TNCC

Flight info

Callsign CG78
Flight time N/A
Altitude 2500
Route ACORA1K ACORA DCT 14N068W DCT BOSCO DCT AFTON DCT BEXER DCT MA11 DCT MA29 DCT OLITO DCT DUKSO DCT LOGLA DCT D162G DCT ELUVA
Aircraft DHC7/M-SDE2E3FGRY/S

Departure

Time 2026-04-25 12:41
Airport Hato International Airport (TNCC)

Arrival

Time N/A
Airport Hato International Airport (TNCC)
Time Latitude Longitude Altitude Speed Heading
2026-04-25 12:16 12.18610 -68.96272 41 ft 0 kts 107°
2026-04-25 12:23 12.18610 -68.96274 38 ft 2 kts 107°
2026-04-25 12:23 12.18615 -68.96290 39 ft 2 kts 108°
2026-04-25 12:23 12.18622 -68.96305 41 ft 2 kts 122°
2026-04-25 12:24 12.18631 -68.96320 38 ft 2 kts 116°
2026-04-25 12:24 12.18633 -68.96326 39 ft 0 kts 110°
2026-04-25 12:27 12.18634 -68.96329 39 ft 2 kts 110°
2026-04-25 12:27 12.18643 -68.96353 39 ft 5 kts 109°
2026-04-25 12:27 12.18656 -68.96392 39 ft 7 kts 110°
2026-04-25 12:28 12.18675 -68.96442 39 ft 8 kts 110°
2026-04-25 12:28 12.18700 -68.96502 39 ft 10 kts 115°
2026-04-25 12:28 12.18725 -68.96554 39 ft 8 kts 116°
2026-04-25 12:28 12.18746 -68.96597 40 ft 0 kts 92°
2026-04-25 12:29 12.18737 -68.96543 41 ft 23 kts 101°
2026-04-25 12:29 12.18681 -68.96435 41 ft 12 kts 118°
2026-04-25 12:29 12.18640 -68.96348 39 ft 2 kts 107°
2026-04-25 12:29 12.18641 -68.96353 39 ft 0 kts 112°
2026-04-25 12:34 12.18642 -68.96348 39 ft 7 kts 88°
2026-04-25 12:34 12.18669 -68.96353 41 ft 12 kts 300°
2026-04-25 12:34 12.18680 -68.96376 41 ft 9 kts 296°
2026-04-25 12:35 12.18746 -68.96406 40 ft 8 kts
2026-04-25 12:35 12.18797 -68.96419 40 ft 8 kts 307°
2026-04-25 12:35 12.18817 -68.96494 40 ft 22 kts 279°
2026-04-25 12:35 12.18845 -68.96648 40 ft 19 kts 284°
2026-04-25 12:36 12.18872 -68.96761 39 ft 13 kts 284°
2026-04-25 12:36 12.18889 -68.96835 39 ft 8 kts 282°
2026-04-25 12:36 12.18898 -68.96876 39 ft 4 kts 283°
2026-04-25 12:36 12.18900 -68.96884 39 ft 0 kts 284°
2026-04-25 12:37 12.18901 -68.96888 39 ft 6 kts 285°
2026-04-25 12:37 12.18932 -68.97049 38 ft 16 kts 283°
2026-04-25 12:37 12.18957 -68.97164 38 ft 38 kts 281°
2026-04-25 12:37 12.19003 -68.97381 38 ft 37 kts 282°
2026-04-25 12:38 12.19044 -68.97569 38 ft 8 kts 285°
2026-04-25 12:38 12.19052 -68.97600 38 ft 10 kts 283°
2026-04-25 12:38 12.19074 -68.97635 38 ft 2 kts 330°
2026-04-25 12:38 12.19144 -68.97636 38 ft 7 kts 11°
2026-04-25 12:39 12.19214 -68.97607 37 ft 9 kts 66°
2026-04-25 12:39 12.19212 -68.97491 38 ft 5 kts 102°
2026-04-25 12:39 12.19212 -68.97490 38 ft 0 kts 101°
2026-04-25 12:40 12.19194 -68.97396 39 ft 57 kts 101°
2026-04-25 12:40 12.19052 -68.96745 40 ft 117 kts 103°
2026-04-25 12:40 12.18860 -68.95882 173 ft 130 kts 104°
2026-04-25 12:41 12.18668 -68.94948 359 ft 139 kts 102°
2026-04-25 12:41 12.18532 -68.93968 569 ft 137 kts 95°
2026-04-25 12:41 12.18605 -68.93018 934 ft 136 kts 83°
2026-04-25 12:41 12.18783 -68.91988 832 ft 154 kts 84°
2026-04-25 12:42 12.18781 -68.90898 736 ft 156 kts 100°
2026-04-25 12:42 12.18673 -68.90181 664 ft 152 kts 98°
2026-04-25 12:42 12.18527 -68.88903 722 ft 131 kts 77°
2026-04-25 12:42 12.19167 -68.88304 792 ft 135 kts 21°
2026-04-25 12:43 12.20096 -68.88466 815 ft 142 kts 332°
2026-04-25 12:43 12.20949 -68.89036 621 ft 157 kts 330°
2026-04-25 12:43 12.22719 -68.90158 600 ft 153 kts 333°
2026-04-25 12:44 12.23663 -68.90668 620 ft 146 kts 335°
2026-04-25 12:44 12.24573 -68.90938 913 ft 128 kts 357°
2026-04-25 12:44 12.26457 -68.91169 912 ft 139 kts 360°
2026-04-25 12:45 12.27432 -68.91259 923 ft 142 kts
2026-04-25 12:45 12.28423 -68.91315 916 ft 143 kts
2026-04-25 12:45 12.30385 -68.91348 916 ft 143 kts
2026-04-25 12:46 12.31379 -68.91313 914 ft 142 kts
2026-04-25 12:46 12.32365 -68.91290 908 ft 139 kts
2026-04-25 12:46 12.33221 -68.90927 908 ft 135 kts 46°
2026-04-25 12:46 12.33919 -68.90267 908 ft 137 kts 46°
2026-04-25 12:47 12.34649 -68.89626 915 ft 140 kts 46°
2026-04-25 12:47 12.35493 -68.89144 894 ft 144 kts 18°
2026-04-25 12:47 12.36485 -68.88980 905 ft 145 kts 14°
2026-04-25 12:47 12.37475 -68.88792 909 ft 147 kts 16°
2026-04-25 12:48 12.38475 -68.88598 916 ft 146 kts 16°
2026-04-25 12:48 12.39475 -68.88423 969 ft 144 kts 14°
2026-04-25 12:48 12.40463 -68.88238 997 ft 145 kts 18°
2026-04-25 12:48 12.41457 -68.88080 1005 ft 144 kts 14°
2026-04-25 12:49 12.42446 -68.87908 1046 ft 141 kts 15°
2026-04-25 12:49 12.43407 -68.87722 1066 ft 141 kts 15°
2026-04-25 12:49 12.44344 -68.87464 1049 ft 138 kts 27°
2026-04-25 12:49 12.45236 -68.87074 1018 ft 140 kts 27°
2026-04-25 12:50 12.46140 -68.86694 991 ft 140 kts 28°
2026-04-25 12:50 12.47021 -68.86334 1015 ft 139 kts 28°
2026-04-25 12:50 12.47970 -68.85965 1101 ft 147 kts 26°
2026-04-25 12:50 12.48892 -68.85610 1529 ft 141 kts 25°
2026-04-25 12:51 12.49828 -68.85244 1860 ft 145 kts 26°
2026-04-25 12:51 12.50805 -68.84835 1968 ft 163 kts 27°
2026-04-25 12:51 12.51911 -68.84352 1984 ft 180 kts 27°
2026-04-25 12:51 12.53097 -68.83817 1985 ft 192 kts 27°
2026-04-25 12:52 12.54343 -68.83250 1984 ft 199 kts 28°
2026-04-25 12:52 12.55604 -68.82676 1983 ft 204 kts 28°
2026-04-25 12:52 12.56914 -68.82071 1984 ft 206 kts 28°
2026-04-25 12:52 12.58203 -68.81435 1976 ft 206 kts 31°
2026-04-25 12:53 12.59393 -68.80656 1974 ft 201 kts 45°
2026-04-25 12:53 12.60369 -68.79637 1978 ft 201 kts 51°
2026-04-25 12:53 12.61327 -68.78583 1984 ft 201 kts 50°
2026-04-25 12:53 12.62270 -68.77547 1981 ft 201 kts 51°
2026-04-25 12:54 12.63220 -68.76502 1984 ft 200 kts 51°
2026-04-25 12:54 12.64167 -68.75450 1977 ft 202 kts 51°
2026-04-25 12:54 12.65124 -68.74394 1990 ft 203 kts 50°
2026-04-25 12:54 12.66089 -68.73333 1980 ft 204 kts 50°
2026-04-25 12:55 12.67058 -68.72261 1980 ft 206 kts 50°
2026-04-25 12:55 12.67698 -68.71549 1984 ft 206 kts 50°
2026-04-25 12:55 12.69003 -68.70109 1985 ft 206 kts 50°
2026-04-25 12:55 12.69974 -68.69022 1979 ft 207 kts 51°
2026-04-25 12:56 12.70943 -68.67952 1980 ft 207 kts 51°
2026-04-25 12:56 12.71921 -68.66874 1987 ft 206 kts 50°
2026-04-25 12:56 12.72888 -68.65797 1979 ft 204 kts 51°
2026-04-25 12:56 12.73851 -68.64737 1988 ft 203 kts 50°
2026-04-25 12:57 12.74811 -68.63672 1983 ft 201 kts 50°
2026-04-25 12:57 12.75764 -68.62619 1980 ft 201 kts 50°
2026-04-25 12:57 12.76706 -68.61577 1977 ft 201 kts 51°
2026-04-25 12:57 12.77655 -68.60528 1971 ft 201 kts 50°
2026-04-25 12:58 12.78609 -68.59477 1976 ft 201 kts 50°
2026-04-25 12:58 12.79566 -68.58418 1975 ft 203 kts 51°
2026-04-25 12:58 12.80532 -68.57357 1982 ft 204 kts 50°
2026-04-25 12:58 12.81501 -68.56283 1972 ft 205 kts 50°
2026-04-25 12:59 12.82460 -68.55222 1974 ft 205 kts 50°
2026-04-25 12:59 12.83430 -68.54149 1974 ft 205 kts 51°
2026-04-25 12:59 12.84399 -68.53083 1977 ft 205 kts 50°